Regional Weather Roundup
Issued by NWS

Home | Current Version | Previous Version | Graphics & Text | Print | Product List | Glossary On
Versions: 1 2 3 4 5 6 7 8 9 10 11 12 13 14 15 16 17 18 19 20 21 22 23 24 25 26 27
000
ASUS45 KSLC 210910
RWRUT

UTAH REGIONAL WEATHER ROUNDUP
NATIONAL WEATHER SERVICE SALT LAKE CITY UT
200 AM MST SAT JAN 21 2017

UTZ001>011-023>025-211000-

NORTHERN UTAH

CITY           SKY/WX    TMP DP  RH WIND       PRES   REMARKS
BRIGHAM CITY     N/A     32  31  94 N5        29.30S WCI  27
HILL AFB       CLOUDY    33  28  82 VRB6      29.26S WCI  27
LOGAN          CLOUDY    25  24  96 CALM      29.31R FOG
OGDEN          CLOUDY    31  31 100 NE3       29.27S
SALT LAKE CITY CLOUDY    35  30  82 S7        29.27S WCI  29
TOOELE VALLEY  LGT SNOW  32  32 100 SE5       29.27S WCI  27
WENDOVER       CLOUDY    27  25  93 CALM      29.28S
HEBER CITY     LGT SNOW  28  27  93 CALM      29.27S
WEST JORDAN    CLOUDY    33  33 100 S12       29.27S WCI  24

$$

UTZ011>015-024>027-211000-

CENTRAL/NORTHEAST UTAH

CITY           SKY/WX    TMP DP  RH WIND       PRES   REMARKS
PROVO AIRPORT  FLURRIES  33  31  92 SW6       29.29S WCI  28
MOAB/CANYONLAN CLOUDY    36  33  89 E8        29.32F WCI  30
DELTA          CLOUDY    32  32 100 N5        29.25S WCI  27
PRICE          LGT SNOW  30  30 100 E7        29.31F VSB 1   WCI  23
RICHFIELD      CLOUDY    32  32 100 CALM      29.29S
ROOSEVELT      LGT SNOW  27  21  80 SW5       29.40S WCI  21
VERNAL         CLOUDY    21  18  88 CALM      29.37F FOG

$$

UTZ013>016-019>022-027-211000-

SOUTHERN UTAH

CITY           SKY/WX    TMP DP  RH WIND       PRES   REMARKS
BRYCE CANYON   LGT SNOW  25  23  92 SE10      29.28S FOG     WCI  15
CEDAR CITY     CLOUDY    31  29  92 SW16      29.24S WCI  20
MILFORD        LGT SNOW  33  32  96 S15       29.23F FOG     WCI  23
ST GEORGE      CLOUDY    43  36  75 SE7       29.33R
HANKSVILLE     CLOUDY    36  32  87 MISG      29.34F
KANAB          CLOUDY    34  34 100 SW2       29.36S
BLANDING       CLOUDY    31  31 100 SE15G22   29.43F VSB 3/4 WCI  20

$$

REGIONAL REPORTS     COLORADO/ARIZONA

CITY           SKY/WX    TMP DP  RH WIND       PRES   REMARKS
CRAIG, CO      CLOUDY    27  16  63 SE6       29.38F WCI  20
GRAND JUNCTION CLOUDY    34  29  82 E9        29.36F WCI  27
RIFLE, CO      CLOUDY    25  23  92 SW6       29.39F WCI  18
MONTROSE, CO   CLOUDY    31  19  61 E8        29.41F WCI  23
CORTEZ, CO     LGT SNOW  31  31 100 NE6       29.39F VSB 1   WCI  25
COLORADO CITY  LGT RAIN  34  34 100 CALM      29.34S
PAGE, AZ       CLOUDY    37  31  78 CALM      29.31F
GRAND CANYON   LGT SNOW  29  29 100 SW13      29.34S VSB 3/4 WCI  19
KINGMAN, AZ    CLOUDY    41  37  86 SW20G26   29.40S
FLAGSTAFF, AZ  LGT SNOW  28  26  92 SW12      29.37R FOG     WCI  18

$$

REGIONAL REPORTS    NEVADA/IDAHO/WYOMING

CITY           SKY/WX    TMP DP  RH WIND       PRES   REMARKS
LAS VEGAS, NV  PTCLDY    47  32  56 SW14G22   29.32R
ELY, NY        CLOUDY    25  23  92 W6        29.26R WCI  18
ELKO, NV       CLOUDY    27  24  89 CALM      29.27R FOG
POCATELLO, ID  LGT SNOW  33  27  78 E7        29.28S WCI  27
BURLEY, ID     CLOUDY    30  26  85 E3        29.25S
FORT BRIDGER,  FOG       14  14 100 W6        29.33F VSB 1   WCI   5
EVANSTON, WY   CLOUDY    14  10  84 E12       29.28S WCI   0
ROCK SPRINGS,  CLOUDY    22  16  78 SE7       29.32F WCI  13

$$




USA.gov is the U.S. government's official web portal to all federal, state and local government web resources and services.